Time,TemperatureF,DewpointF,PressureIn,WindDirection,WindDirectionDegrees,WindSpeedMPH,WindSpeedGustMPH,Humidity,HourlyPrecipIn,Conditions,Clouds,dailyrainin,SoftwareType,DateUTC
2013-01-10 00:00:00,32.1,13.0,30.23,North,354,0.0,0.0,45,0.00,,,0.00,weatherlink.com 1.10,2013-01-10 07:00:00,
2013-01-10 00:15:00,31.4,13.0,30.22,North,5,0.0,2.0,46,0.00,,,0.00,weatherlink.com 1.10,2013-01-10 07:15:00,
2013-01-10 00:30:00,31.1,12.0,30.21,North,349,2.0,6.0,46,0.00,,,0.00,weatherlink.com 1.10,2013-01-10 07:30:00,
2013-01-10 00:45:00,30.6,13.0,30.21,NE,47,0.0,4.0,48,0.00,,,0.00,weatherlink.com 1.10,2013-01-10 07:45:00,
2013-01-10 01:00:00,30.3,13.0,30.20,NNE,21,0.0,3.0,49,0.00,,,0.00,weatherlink.com 1.10,2013-01-10 08:00:00,
2013-01-10 01:15:00,29.4,12.0,30.19,North,8,0.0,3.0,48,0.00,,,0.00,weatherlink.com 1.10,2013-01-10 08:15:00,
2013-01-10 01:30:00,29.2,12.0,30.19,NW,326,1.0,4.0,49,0.00,,,0.00,weatherlink.com 1.10,2013-01-10 08:30:00,
2013-01-10 01:45:00,28.9,12.0,30.19,NNE,19,1.0,4.0,50,0.00,,,0.00,weatherlink.com 1.10,2013-01-10 08:45:00,
2013-01-10 02:00:00,28.2,12.0,30.19,North,6,2.0,3.0,50,0.00,,,0.00,weatherlink.com 1.10,2013-01-10 09:00:00,
2013-01-10 02:15:00,27.8,12.0,30.18,North,6,1.0,4.0,51,0.00,,,0.00,weatherlink.com 1.10,2013-01-10 09:15:00,
2013-01-10 02:30:00,27.7,12.0,30.17,NW,314,1.0,4.0,51,0.00,,,0.00,weatherlink.com 1.10,2013-01-10 09:30:00,
2013-01-10 02:45:00,27.7,12.0,30.17,North,349,2.0,6.0,51,0.00,,,0.00,weatherlink.com 1.10,2013-01-10 09:45:00,
2013-01-10 03:00:00,27.2,12.0,30.17,North,354,2.0,5.0,52,0.00,,,0.00,weatherlink.com 1.10,2013-01-10 10:00:00,
2013-01-10 03:16:00,26.7,12.0,30.16,NNE,14,3.0,7.0,53,0.00,,,0.00,weatherlink.com 1.10,2013-01-10 10:16:00,
2013-01-10 03:46:00,26.7,12.0,30.16,North,8,0.0,0.0,54,0.00,,,0.00,weatherlink.com 1.10,2013-01-10 10:46:00,
2013-01-10 04:01:00,27.1,12.0,30.15,ENE,61,0.0,0.0,53,0.00,,,0.00,weatherlink.com 1.10,2013-01-10 11:01:00,
2013-01-10 04:16:00,26.9,11.0,30.14,North,6,0.0,0.0,52,0.00,,,0.00,weatherlink.com 1.10,2013-01-10 11:16:00,
2013-01-10 04:31:00,28.8,15.0,30.13,North,6,0.0,0.0,56,0.00,,,0.00,weatherlink.com 1.10,2013-01-10 11:31:00,
2013-01-10 04:46:00,27.5,13.0,30.13,North,6,0.0,0.0,54,0.00,,,0.00,weatherlink.com 1.10,2013-01-10 11:46:00,
2013-01-10 05:01:00,27.0,11.0,30.13,North,6,0.0,0.0,51,0.00,,,0.00,weatherlink.com 1.10,2013-01-10 12:01:00,
2013-01-10 05:16:00,26.1,11.0,30.12,North,6,0.0,0.0,53,0.00,,,0.00,weatherlink.com 1.10,2013-01-10 12:16:00,
2013-01-10 05:31:00,25.4,11.0,30.12,North,359,0.0,2.0,55,0.00,,,0.00,weatherlink.com 1.10,2013-01-10 12:31:00,
2013-01-10 05:46:00,24.7,11.0,30.12,NNW,346,0.0,2.0,56,0.00,,,0.00,weatherlink.com 1.10,2013-01-10 12:46:00,
2013-01-10 06:01:00,24.3,11.0,30.13,North,353,1.0,2.0,57,0.00,,,0.00,weatherlink.com 1.10,2013-01-10 13:01:00,
2013-01-10 06:16:00,23.6,11.0,30.12,North,3,1.0,3.0,58,0.00,,,0.00,weatherlink.com 1.10,2013-01-10 13:16:00,
2013-01-10 06:31:00,23.3,10.0,30.12,North,354,2.0,3.0,58,0.00,,,0.00,weatherlink.com 1.10,2013-01-10 13:31:00,
2013-01-10 06:46:00,23.1,11.0,30.11,North,5,0.0,2.0,59,0.00,,,0.00,weatherlink.com 1.10,2013-01-10 13:46:00,
2013-01-10 07:01:00,23.1,11.0,30.11,NNE,12,0.0,3.0,59,0.00,,,0.00,weatherlink.com 1.10,2013-01-10 14:01:00,
2013-01-10 07:16:00,22.9,10.0,30.11,North,360,1.0,1.0,59,0.00,,,0.00,weatherlink.com 1.10,2013-01-10 14:16:00,
2013-01-10 07:31:00,22.5,10.0,30.12,NNW,335,1.0,2.0,60,0.00,,,0.00,weatherlink.com 1.10,2013-01-10 14:31:00,
2013-01-10 07:46:00,22.5,10.0,30.12,North,349,0.0,2.0,60,0.00,,,0.00,weatherlink.com 1.10,2013-01-10 14:46:00,
2013-01-10 08:01:00,23.4,10.0,30.12,North,349,0.0,1.0,58,0.00,,,0.00,weatherlink.com 1.10,2013-01-10 15:01:00,
2013-01-10 08:16:00,25.4,12.0,30.13,North,349,0.0,0.0,56,0.00,,,0.00,weatherlink.com 1.10,2013-01-10 15:16:00,
2013-01-10 08:31:00,26.6,11.0,30.12,North,349,0.0,0.0,52,0.00,,,0.00,weatherlink.com 1.10,2013-01-10 15:31:00,
2013-01-10 08:46:00,27.5,12.0,30.13,NNW,342,0.0,0.0,52,0.00,,,0.00,weatherlink.com 1.10,2013-01-10 15:46:00,
2013-01-10 09:01:00,27.6,12.0,30.14,WNW,300,0.0,0.0,52,0.00,,,0.00,weatherlink.com 1.10,2013-01-10 16:01:00,
2013-01-10 09:16:00,28.7,12.0,30.14,West,273,1.0,2.0,49,0.00,,,0.00,weatherlink.com 1.10,2013-01-10 16:16:00,
2013-01-10 09:31:00,30.4,12.0,30.13,NNE,16,0.0,2.0,47,0.00,,,0.00,weatherlink.com 1.10,2013-01-10 16:31:00,
2013-01-10 09:46:00,30.7,12.0,30.14,North,351,0.0,1.0,46,0.00,,,0.00,weatherlink.com 1.10,2013-01-10 16:46:00,
2013-01-10 10:01:00,31.8,12.0,30.14,North,11,0.0,0.0,44,0.00,,,0.00,weatherlink.com 1.10,2013-01-10 17:01:00,
2013-01-10 10:16:00,32.8,12.0,30.15,West,262,0.0,0.0,43,0.00,,,0.00,weatherlink.com 1.10,2013-01-10 17:16:00,
2013-01-10 10:33:00,34.0,12.0,30.13,SE,136,1.0,2.0,41,0.00,,,0.00,weatherlink.com 1.10,2013-01-10 17:33:00,
2013-01-10 10:46:00,34.9,13.0,30.12,SSE,148,1.0,5.0,41,0.00,,,0.00,weatherlink.com 1.10,2013-01-10 17:46:00,
2013-01-10 11:02:00,37.1,13.0,30.12,WSW,248,2.0,6.0,38,0.00,,,0.00,weatherlink.com 1.10,2013-01-10 18:02:00,
2013-01-10 11:17:00,37.4,14.0,30.09,SSE,153,1.0,5.0,38,0.00,,,0.00,weatherlink.com 1.10,2013-01-10 18:17:00,
2013-01-10 11:32:00,39.8,14.0,30.08,SE,145,1.0,4.0,35,0.00,,,0.00,weatherlink.com 1.10,2013-01-10 18:32:00,
2013-01-10 11:47:00,40.3,14.0,30.07,SSW,211,0.0,4.0,34,0.00,,,0.00,weatherlink.com 1.10,2013-01-10 18:47:00,
2013-01-10 12:02:00,41.6,14.0,30.05,SSW,213,1.0,6.0,33,0.00,,,0.00,weatherlink.com 1.10,2013-01-10 19:02:00,
2013-01-10 12:18:00,43.1,14.0,30.04,WSW,249,2.0,4.0,31,0.00,,,0.00,weatherlink.com 1.10,2013-01-10 19:18:00,
2013-01-10 12:32:00,43.1,14.0,30.03,SW,215,0.0,3.0,31,0.00,,,0.00,weatherlink.com 1.10,2013-01-10 19:32:00,
2013-01-10 12:47:00,42.7,14.0,30.01,SSE,148,0.0,2.0,31,0.00,,,0.00,weatherlink.com 1.10,2013-01-10 19:47:00,
2013-01-10 13:17:00,42.5,14.0,29.98,ESE,117,1.0,2.0,31,0.00,,,0.00,weatherlink.com 1.10,2013-01-10 20:17:00,
2013-01-10 13:32:00,44.1,14.0,29.97,South,183,2.0,3.0,30,0.00,,,0.00,weatherlink.com 1.10,2013-01-10 20:32:00,
2013-01-10 13:47:00,45.4,15.0,29.96,SW,225,2.0,4.0,29,0.00,,,0.00,weatherlink.com 1.10,2013-01-10 20:47:00,
2013-01-10 14:02:00,46.4,14.0,29.96,SSW,207,3.0,5.0,27,0.00,,,0.00,weatherlink.com 1.10,2013-01-10 21:02:00,
2013-01-10 14:17:00,46.6,14.0,29.96,SE,134,2.0,5.0,27,0.00,,,0.00,weatherlink.com 1.10,2013-01-10 21:17:00,
2013-01-10 14:32:00,46.3,14.0,29.95,SSW,205,0.0,6.0,27,0.00,,,0.00,weatherlink.com 1.10,2013-01-10 21:32:00,
2013-01-10 14:47:00,45.4,14.0,29.95,WSW,240,2.0,5.0,28,0.00,,,0.00,weatherlink.com 1.10,2013-01-10 21:47:00,
2013-01-10 15:02:00,45.1,14.0,29.95,SSW,204,1.0,3.0,28,0.00,,,0.00,weatherlink.com 1.10,2013-01-10 22:02:00,
2013-01-10 15:17:00,44.7,14.0,29.94,SW,214,0.0,4.0,29,0.00,,,0.00,weatherlink.com 1.10,2013-01-10 22:17:00,
2013-01-10 15:32:00,44.2,14.0,29.95,SW,222,1.0,4.0,29,0.00,,,0.00,weatherlink.com 1.10,2013-01-10 22:32:00,
2013-01-10 15:47:00,43.6,14.0,29.94,SSE,148,2.0,4.0,30,0.00,,,0.00,weatherlink.com 1.10,2013-01-10 22:47:00,
2013-01-10 16:02:00,43.2,14.0,29.95,South,181,0.0,2.0,30,0.00,,,0.00,weatherlink.com 1.10,2013-01-10 23:02:00,
2013-01-10 16:17:00,43.0,14.0,29.95,WSW,245,2.0,2.0,31,0.00,,,0.00,weatherlink.com 1.10,2013-01-10 23:17:00,
2013-01-10 16:32:00,42.8,14.0,29.94,SSE,156,0.0,1.0,31,0.00,,,0.00,weatherlink.com 1.10,2013-01-10 23:32:00,
2013-01-10 16:47:00,42.8,14.0,29.93,SE,125,1.0,4.0,31,0.00,,,0.00,weatherlink.com 1.10,2013-01-10 23:47:00,
2013-01-10 17:02:00,42.9,14.0,29.92,ESE,118,0.0,2.0,31,0.00,,,0.00,weatherlink.com 1.10,2013-01-11 00:02:00,
2013-01-10 17:17:00,42.4,14.0,29.91,SE,141,0.0,1.0,32,0.00,,,0.00,weatherlink.com 1.10,2013-01-11 00:17:00,
2013-01-10 17:32:00,42.4,14.0,29.92,East,82,0.0,3.0,32,0.00,,,0.00,weatherlink.com 1.10,2013-01-11 00:32:00,
2013-01-10 17:47:00,42.5,15.0,29.92,East,82,0.0,0.0,33,0.00,,,0.00,weatherlink.com 1.10,2013-01-11 00:47:00,
2013-01-10 18:02:00,43.1,14.0,29.92,East,82,0.0,0.0,31,0.00,,,0.00,weatherlink.com 1.10,2013-01-11 01:02:00,
2013-01-10 18:17:00,42.1,14.0,29.91,ESE,117,0.0,1.0,32,0.00,,,0.00,weatherlink.com 1.10,2013-01-11 01:17:00,
2013-01-10 18:33:00,41.9,15.0,29.91,SSE,148,0.0,1.0,33,0.00,,,0.00,weatherlink.com 1.10,2013-01-11 01:33:00,
2013-01-10 18:48:00,40.9,16.0,29.92,SSE,148,0.0,1.0,36,0.00,,,0.00,weatherlink.com 1.10,2013-01-11 01:48:00,
2013-01-10 19:03:00,40.9,15.0,29.91,SSE,148,0.0,1.0,35,0.00,,,0.00,weatherlink.com 1.10,2013-01-11 02:03:00,
2013-01-10 19:18:00,41.9,18.0,29.90,SSE,148,0.0,0.0,39,0.00,,,0.00,weatherlink.com 1.10,2013-01-11 02:18:00,
2013-01-10 19:33:00,39.9,15.0,29.90,SE,146,0.0,2.0,37,0.00,,,0.00,weatherlink.com 1.10,2013-01-11 02:33:00,
2013-01-10 19:48:00,38.8,14.0,29.90,SE,146,0.0,2.0,37,0.00,,,0.00,weatherlink.com 1.10,2013-01-11 02:48:00,
2013-01-10 20:03:00,38.9,15.0,29.89,SE,146,0.0,1.0,38,0.00,,,0.00,weatherlink.com 1.10,2013-01-11 03:03:00,
2013-01-10 20:18:00,38.5,15.0,29.89,SE,146,0.0,1.0,38,0.00,,,0.00,weatherlink.com 1.10,2013-01-11 03:18:00,
2013-01-10 20:33:00,38.2,14.0,29.89,SE,146,0.0,1.0,38,0.00,,,0.00,weatherlink.com 1.10,2013-01-11 03:33:00,
2013-01-10 20:48:00,37.7,15.0,29.89,SE,132,0.0,1.0,40,0.00,,,0.00,weatherlink.com 1.10,2013-01-11 03:48:00,
2013-01-10 21:03:00,37.9,15.0,29.88,SE,132,0.0,1.0,39,0.00,,,0.00,weatherlink.com 1.10,2013-01-11 04:03:00,
2013-01-10 21:18:00,39.2,16.0,29.88,ESE,113,1.0,1.0,39,0.00,,,0.00,weatherlink.com 1.10,2013-01-11 04:18:00,
2013-01-10 21:33:00,40.6,17.0,29.87,SSE,165,2.0,5.0,38,0.00,,,0.00,weatherlink.com 1.10,2013-01-11 04:33:00,
2013-01-10 21:48:00,41.0,17.0,29.87,SE,145,1.0,4.0,38,0.00,,,0.00,weatherlink.com 1.10,2013-01-11 04:48:00,
2013-01-10 22:03:00,40.9,17.0,29.86,SE,127,1.0,3.0,38,0.00,,,0.00,weatherlink.com 1.10,2013-01-11 05:03:00,
2013-01-10 22:18:00,40.8,17.0,29.85,ESE,121,2.0,6.0,39,0.00,,,0.00,weatherlink.com 1.10,2013-01-11 05:18:00,
2013-01-10 22:33:00,40.5,18.0,29.85,SE,146,1.0,5.0,40,0.00,,,0.00,weatherlink.com 1.10,2013-01-11 05:33:00,
2013-01-10 22:48:00,40.0,18.0,29.84,South,177,1.0,5.0,41,0.00,,,0.00,weatherlink.com 1.10,2013-01-11 05:48:00,
2013-01-10 23:03:00,39.5,19.0,29.83,SSW,212,1.0,4.0,43,0.00,,,0.00,weatherlink.com 1.10,2013-01-11 06:03:00,
2013-01-10 23:18:00,39.0,18.0,29.83,SSW,210,0.0,4.0,43,0.00,,,0.00,weatherlink.com 1.10,2013-01-11 06:18:00,
2013-01-10 23:33:00,38.8,19.0,29.81,SSW,194,1.0,9.0,46,0.00,,,0.00,weatherlink.com 1.10,2013-01-11 06:33:00,
2013-01-10 23:48:00,40.9,22.0,29.81,SSE,163,3.0,8.0,47,0.00,,,0.00,weatherlink.com 1.10,2013-01-11 06:48:00,